Location: Arborea
(39.7744°N, 8.5819°E)
Time: 03:21:34
(UTC+00:00)

USA 229 - Pass Details

Date: 03 June 2022
Orbit: 938 x 1274 km, 63.4° (Epoch: 24 May)

Event Time Altitude Azimuth Distance (km) Brightness Sun altitude
Rises 00:38:50 0° 306° (NW) 4,091 7.0 -25.5°
Reaches altitude 10° 00:43:21 10° 281° (W) 3,183 6.1 -25.2°
Enters shadow 00:45:30 13° 265° (W) 2,993 5.8 -25.1°
